Weather History for McMinnville, OR

Change the Weather History Date:

Tuesday, January 14, 2014

  Actual Average Record
Temperature  
Mean Temperature 40 °F 41 °F  
Max Temperature 48 °F 48 °F 62 °F (1958)
Min Temperature 32 °F 34 °F 11 °F (1950)
Degree Days  
Heating Degree Days 25 24  
Month to date heating degree days 311 348  
Since 1 July heating degree days 2351 2353  
Cooling Degree Days 0 0  
Month to date cooling degree days 0 0  
Year to date cooling degree days 0 0  
Moisture  
Dew Point 39 °F    
Average Humidity 96    
Maximum Humidity 100    
Minimum Humidity 92    
Precipitation  
Precipitation 0.00 in 0.18 in 2.02 in (1901)
Month to date precipitation 2.09 3.01  
Year to date precipitation 2.09 3.01  
Sea Level Pressure  
Sea Level Pressure 30.65 in    
Wind  
Wind Speed 2 mph (SW)    
Max Wind Speed 10 mph    
Max Gust Speed 12 mph    
Visibility 2 miles    
Events Fog    
T = Trace of Precipitation, MM = Missing Value Source: NWS Daily Summary

Daily Weather History Graph

Daily Weather History Graph

Search for Another Location

Airport:

Trip Planner

Search our weather history database for the weather conditions in past years. The results will help you decide how hot, cold, wet, or windy it might be!

Date:

Astronomy

Jan. 14, 2014 Rise Set
Actual Time 7:48 AM PST 4:55 PM PST
Civil Twilight 7:15 AM PST 5:28 PM PST
Nautical Twilight 6:38 AM PST 6:04 PM PST
Astronomical Twilight 6:03 AM PST 6:40 PM PST
Moon 4:07 PM PST (1/14) 6:25 AM PST (1/14)
Length of Visible Light 10h 13m
Length of Day
9h 07m
Waxing Gibbous, 98% of the Moon is Illuminated
Jan 14
Waxing Gibbous
Jan 15
Full
Jan 23
Last Quarter
Jan 30
New
Feb 6
First Quarter

Hourly Weather History & Observations

Time (PST) Temp. Windchill Dew Point Humidity Pressure Visibility Wind Dir Wind Speed Gust Speed Precip Events Conditions
12:53 AM 39.0 °F - 39.0 °F 100% 30.66 in 10.0 mi Calm Calm - N/A   Clear
1:53 AM 39.9 °F 37.8 °F 39.9 °F 100% 30.67 in 6.0 mi North 3.5 mph - N/A   Clear
2:42 AM 37.9 °F - 37.9 °F 100% 30.67 in 1.8 mi Calm Calm - N/A   Clear
2:53 AM 39.0 °F 36.8 °F 37.9 °F 96% 30.67 in 1.5 mi NNW 3.5 mph - N/A   Clear
3:07 AM 37.9 °F 33.5 °F 37.0 °F 97% 30.67 in 3.0 mi NW 5.8 mph - N/A   Clear
3:20 AM 37.0 °F 33.3 °F 37.0 °F 100% 30.67 in 1.8 mi WNW 4.6 mph - N/A   Clear
3:23 AM 35.1 °F 31.0 °F 35.1 °F 100% 30.67 in 0.8 mi WSW 4.6 mph - N/A   Mist
3:30 AM 35.1 °F 32.2 °F 35.1 °F 100% 30.67 in 0.5 mi West 3.5 mph - N/A Fog Fog
3:36 AM 37.0 °F 33.3 °F 37.0 °F 100% 30.67 in 1.2 mi West 4.6 mph - N/A   Partly Cloudy
3:39 AM 37.0 °F 34.5 °F 37.0 °F 100% 30.67 in 3.0 mi West 3.5 mph - N/A   Partly Cloudy
3:53 AM 37.0 °F 34.5 °F 37.0 °F 100% 30.66 in 5.0 mi WNW 3.5 mph - N/A   Partly Cloudy
4:39 AM 36.0 °F 33.3 °F 36.0 °F 100% 30.66 in 1.8 mi WSW 3.5 mph - N/A   Clear
4:53 AM 37.0 °F - 37.0 °F 100% 30.66 in 1.0 mi Calm Calm - N/A   Clear
5:04 AM 37.9 °F - 37.9 °F 100% 30.66 in 0.8 mi Calm Calm - N/A   Clear
5:15 AM 37.9 °F 35.5 °F 37.9 °F 100% 30.66 in 1.8 mi NW 3.5 mph - N/A   Clear
5:20 AM 37.9 °F 34.4 °F 37.0 °F 97% 30.66 in 3.0 mi NW 4.6 mph - N/A   Clear
5:50 AM 35.6 °F - 35.6 °F 100% 30.66 in 1.8 mi Calm Calm - N/A   Clear
5:53 AM 35.1 °F 32.2 °F 35.1 °F 100% 30.66 in 1.0 mi West 3.5 mph - N/A   Clear
5:57 AM 34.0 °F 31.0 °F 34.0 °F 100% 30.65 in 0.5 mi SW 3.5 mph - N/A Fog Fog
6:50 AM 33.8 °F 30.8 °F 33.8 °F 100% 30.65 in 0.5 mi SSW 3.5 mph - N/A Fog Fog
6:53 AM 34.0 °F - 33.1 °F 96% 30.66 in 0.5 mi Calm Calm - N/A Fog Fog
7:14 AM 33.1 °F 30.0 °F 33.1 °F 100% 30.66 in 1.0 mi West 3.5 mph - N/A   Mist
7:18 AM 33.1 °F 30.0 °F 33.1 °F 100% 30.66 in 2.0 mi West 3.5 mph - N/A   Scattered Clouds
7:43 AM 34.0 °F 31.0 °F 33.1 °F 96% 30.66 in 3.0 mi West 3.5 mph - N/A   Clear
7:53 AM 33.1 °F 28.7 °F 33.1 °F 100% 30.66 in 2.0 mi WNW 4.6 mph - N/A   Clear
8:04 AM 33.1 °F 30.0 °F 33.1 °F 100% 30.66 in 7.0 mi West 3.5 mph - N/A   Clear
8:23 AM 32.0 °F 28.7 °F 32.0 °F 100% 30.67 in 1.8 mi SW 3.5 mph - N/A   Clear
8:32 AM 32.0 °F - 32.0 °F 100% 30.67 in 0.5 mi Calm Calm - N/A Fog Fog
8:40 AM 32.0 °F 28.7 °F 32.0 °F 100% 30.68 in 0.8 mi WSW 3.5 mph - N/A   Mist
8:53 AM 33.1 °F 30.0 °F 33.1 °F 100% 30.69 in 1.8 mi WSW 3.5 mph - N/A   Partly Cloudy
8:55 AM 33.1 °F 30.0 °F 33.1 °F 100% 30.68 in 4.0 mi WSW 3.5 mph - N/A   Partly Cloudy
9:53 AM 37.0 °F - 37.0 °F 100% 30.69 in 10.0 mi Calm Calm - N/A   Clear
10:33 AM 41.0 °F - 41.0 °F 100% 30.68 in 10.0 mi Calm Calm - N/A   Partly Cloudy
10:53 AM 41.0 °F - 41.0 °F 100% 30.68 in 10.0 mi Calm Calm - N/A   Clear
11:53 AM 43.0 °F 41.3 °F 42.1 °F 97% 30.67 in 10.0 mi SE 3.5 mph - N/A   Clear
12:53 PM 46.0 °F - 44.1 °F 93% 30.64 in 10.0 mi Calm Calm - N/A   Clear
1:53 PM 48.0 °F - 46.0 °F 93% 30.62 in 7.0 mi ESE 5.8 mph - N/A   Partly Cloudy
2:18 PM 45.0 °F 41.2 °F 44.1 °F 97% 30.62 in 1.8 mi East 6.9 mph - N/A   Mostly Cloudy
2:28 PM 45.0 °F 41.2 °F 45.0 °F 100% 30.62 in 1.0 mi East 6.9 mph - N/A   Mostly Cloudy
2:36 PM 45.0 °F 41.2 °F 45.0 °F 100% 30.62 in 0.5 mi East 6.9 mph - N/A Fog Fog
2:49 PM 44.6 °F 42.2 °F 44.6 °F 100% 30.62 in 0.2 mi ESE 4.6 mph - N/A Fog Fog
2:53 PM 45.0 °F 41.8 °F 45.0 °F 100% 30.63 in 0.5 mi East 5.8 mph - N/A Fog Fog
3:15 PM 44.1 °F 40.8 °F 44.1 °F 100% 30.63 in 0.2 mi ESE 5.8 mph - N/A Fog Fog
3:27 PM 44.1 °F 41.5 °F 44.1 °F 100% 30.62 in 0.5 mi ESE 4.6 mph - N/A Fog Fog
3:36 PM 44.1 °F 41.5 °F 44.1 °F 100% 30.62 in 0.2 mi ESE 4.6 mph - N/A Fog Fog
3:41 PM 44.1 °F 41.5 °F 44.1 °F 100% 30.62 in 1.0 mi SE 4.6 mph - N/A   Overcast
3:49 PM 44.6 °F 43.1 °F 44.6 °F 100% 30.63 in 3.0 mi ESE 3.5 mph - N/A   Mostly Cloudy
3:53 PM 44.1 °F 42.5 °F 44.1 °F 100% 30.63 in 3.0 mi SSE 3.5 mph - N/A   Mostly Cloudy
4:02 PM 43.0 °F 41.3 °F 43.0 °F 100% 30.63 in 1.8 mi South 3.5 mph - N/A   Overcast
4:13 PM 43.0 °F 41.3 °F 43.0 °F 100% 30.63 in 0.2 mi SSE 3.5 mph - N/A Fog Fog
4:23 PM 43.0 °F - 43.0 °F 100% 30.63 in 0.2 mi Calm Calm - N/A Fog Fog
4:53 PM 43.0 °F - 43.0 °F 100% 30.62 in 0.2 mi Calm Calm - N/A Fog Fog
5:53 PM 44.1 °F - 44.1 °F 100% 30.61 in 0.2 mi Calm Calm - N/A Fog Fog
6:53 PM 43.0 °F - 43.0 °F 100% 30.61 in 0.2 mi Calm Calm - N/A Fog Fog
7:53 PM 41.0 °F - 41.0 °F 100% 30.61 in 0.2 mi Calm Calm - N/A Fog Fog
8:53 PM 41.0 °F - 41.0 °F 100% 30.61 in 0.2 mi Calm Calm - N/A Fog Fog
9:53 PM 41.0 °F - 41.0 °F 100% 30.61 in 0.2 mi Calm Calm - N/A Fog Fog
10:53 PM 41.0 °F - 41.0 °F 100% 30.60 in 0.2 mi Calm Calm - N/A Fog Fog
11:53 PM 41.0 °F - 41.0 °F 100% 30.59 in 0.2 mi Calm Calm - N/A Fog Fog